Location: Calvatone
(45.1167°N, 10.4333°E)
Time: 08:17:05
(UTC+00:00)

ATLAS 2AS CENTAUR R/B - Visible Passes

Search period start: 14 June 2024 00:00
Search period end: 24 June 2024 00:00
Orbit: 1017 x 1194 km, 63.7° (Epoch: 13 June)

Date Brightness Start Highest point End Pass type
(mag) Time Alt. Az. Time Alt. Az. Time Alt. Az.
14 Jun 2.6 21:16:55 10° NW 21:23:48 87° SW 21:27:50 26° SSE visible
14 Jun 4.3 23:09:34 10° WNW 23:13:39 17° WSW 23:15:14 16° WSW visible
15 Jun 2.9 20:31:58 10° NW 20:38:47 65° NE 20:44:10 16° SE visible
15 Jun 3.8 22:23:34 10° NW 22:29:09 28° WSW 22:31:35 22° SW visible
16 Jun 3.4 19:47:02 10° NNW 19:53:37 45° NE 19:59:58 10° ESE visible
16 Jun 3.2 21:38:09 10° NW 21:44:31 45° WSW 21:47:58 25° S visible
17 Jun 2.8 20:52:58 10° NW 20:59:44 70° WSW 21:04:23 20° SSE visible
17 Jun 4.6 22:46:49 10° W 22:49:19 12° WSW 22:51:48 10° SW visible
18 Jun 2.7 20:07:57 10° NW 20:14:49 80° NE 20:20:51 13° SE visible
18 Jun 4.2 22:00:03 10° WNW 22:04:54 21° WSW 22:08:16 15° SW visible
19 Jun 3.7 21:14:21 10° NW 21:20:20 34° WSW 21:24:47 16° S visible
20 Jun 3.1 20:29:03 10° NW 20:35:38 54° WSW 20:41:20 13° SSE visible
21 Jun 2.8 19:43:57 10° NW 19:50:47 83° SW 19:57:23 10° SSE visible
21 Jun 4.6 21:36:48 10° WNW 21:40:35 16° WSW 21:44:20 10° SW visible
22 Jun 4.1 20:50:41 10° WNW 20:56:06 26° WSW 21:01:24 10° SSW visible
23 Jun 3.6 20:05:12 10° NW 20:11:29 42° WSW 20:17:35 10° S visible
